DW7013 Weather Reports


time (UTC)temp
F
wind
direction
speed
knots
gust
knots
rain 1hr
in
rain 24hr
in
rain mn
in
humidity
%
barometer
mb
20260506002213 46 150 0.0 0.0 0.00 0.34 0.00 94 1009.2
20260506001711 46 150 0.0 0.0 0.00 0.34 0.00 94 1009.2
20260506001227 46 150 0.0 0.0 0.00 0.34 0.00 94 1009.3
20260506000728 46 61 0.0 0.0 0.00 0.34 0.00 94 1009.4
20260506000211 46 355 0.0 0.0 0.00 0.34 0.00 94 1009.4
20260505235718 46 355 0.0 0.0 0.00 0.34 0.00 94 1009.5
20260505235206 46 355 0.0 0.0 0.00 0.34 0.00 94 1009.5
20260505234734 46 355 0.0 0.0 0.00 0.34 0.00 94 1009.8
20260505234209 46 355 0.0 0.0 0.00 0.34 0.00 94 1009.7
20260505233722 46 355 0.0 0.0 0.00 0.34 0.00 94 1009.8
20260505232723 46 355 0.0 0.0 0.00 0.34 0.00 94 1009.8
20260505232231 46 355 0.0 0.0 0.00 0.34 0.00 94 1009.8
20260505231711 46 355 0.0 0.0 0.00 0.34 0.00 94 1009.9
20260505231223 46 92 0.0 0.0 0.00 0.34 0.00 94 1009.9
20260505230720 46 93 0.0 0.0 0.00 0.34 0.00 94 1010.1
20260505230208 47 87 0.0 0.0 0.00 0.34 0.00 94 1010.1
20260505225719 47 88 0.0 0.0 0.00 0.34 0.00 94 1010.1
20260505225219 47 88 0.0 0.0 0.00 0.34 0.00 94 1010.0
20260505224715 47 87 0.0 0.0 0.00 0.34 0.00 94 1010.0
20260505224226 47 87 0.0 0.0 0.00 0.34 0.00 94 1009.9
20260505223724 47 115 0.0 0.0 0.00 0.34 0.00 94 1010.0
20260505222711 48 325 0.0 0.0 0.00 0.34 0.00 94 1010.0
20260505222226 48 325 0.0 0.0 0.00 0.34 0.00 94 1010.0
20260505221721 48 325 0.0 0.0 0.00 0.34 0.00 94 1010.0
20260505221225 48 325 0.0 0.0 0.00 0.34 0.00 94 1010.1
20260505220718 48 325 0.0 0.0 0.00 0.34 0.00 94 1010.1
20260505220215 48 188 0.0 0.0 0.00 0.34 0.34 94 1010.1
20260505215229 48 187 0.0 0.0 0.00 0.34 0.34 94 1010.2
20260505214714 48 180 0.0 0.0 0.00 0.34 0.34 94 1010.2
20260505213221 48 158 0.0 0.0 0.00 0.34 0.34 94 1010.2
20260505212725 48 147 0.0 0.0 0.00 0.34 0.34 94 1010.3
20260505212217 49 173 0.0 0.0 0.00 0.34 0.34 94 1010.3
20260505211707 49 173 0.0 0.0 0.00 0.34 0.34 93 1010.4
20260505211234 49 121 0.0 0.0 0.00 0.34 0.34 93 1010.2
20260505210232 49 257 0.0 0.0 0.00 0.34 0.34 93 1010.2
20260505205728 49 257 0.0 0.0 0.00 0.34 0.34 93 1010.2
20260505205218 49 140 0.0 0.0 0.00 0.34 0.34 93 1010.2
20260505204720 49 153 0.0 0.0 0.00 0.34 0.34 93 1010.2
20260505204215 49 137 0.0 0.0 0.00 0.34 0.34 93 1010.3
20260505203725 49 254 0.0 0.0 0.00 0.34 0.34 93 1010.2
20260505203214 49 255 0.0 0.0 0.00 0.34 0.34 93 1010.2
20260505202718 49 255 0.0 0.0 0.00 0.34 0.34 93 1010.2
20260505202222 49 234 0.0 0.0 0.00 0.34 0.34 93 1010.2
20260505201735 49 234 0.0 0.0 0.00 0.34 0.34 93 1010.1
20260505201213 49 235 0.0 0.0 0.00 0.34 0.34 93 1010.0
20260505200730 49 234 0.0 0.0 0.00 0.34 0.34 93 1010.0
20260505195728 49 234 0.0 0.0 0.00 0.34 0.34 92 1009.9
20260505195214 49 234 0.0 0.0 0.00 0.34 0.34 92 1009.8
20260505194721 49 348 0.0 0.0 0.00 0.34 0.34 92 1009.8
20260505194216 49 181 0.0 0.0 0.00 0.34 0.34 92 1009.9
20260505193217 50 188 0.0 0.0 0.00 0.34 0.34 91 1009.7
20260505192725 50 188 0.0 0.0 0.00 0.34 0.34 91 1009.7
20260505192217 50 132 0.0 0.0 0.01 0.34 0.34 91 1009.5
20260505191713 50 115 0.0 0.0 0.01 0.34 0.34 91 1009.8
20260505191211 50 115 0.0 0.0 0.02 0.34 0.34 91 1009.8
20260505190713 50 115 0.0 0.0 0.02 0.34 0.34 90 1009.7
20260505190222 50 115 0.0 0.0 0.04 0.34 0.34 91 1009.5
20260505185726 50 115 0.0 0.0 0.05 0.34 0.34 90 1009.5
20260505185213 50 115 0.0 4.3 0.07 0.34 0.34 90 1009.4
20260505184228 51 96 0.9 6.1 0.14 0.34 0.34 90 1009.4
20260505183713 51 164 0.9 6.1 0.14 0.34 0.34 90 1009.4
20260505183226 51 146 0.9 4.3 0.14 0.34 0.34 90 1009.5
20260505182728 51 136 1.7 4.3 0.13 0.33 0.33 90 1009.5
20260505182213 51 131 0.9 4.3 0.13 0.33 0.33 89 1009.3
20260505181714 51 142 0.9 4.3 0.13 0.32 0.32 89 1009.4
20260505181214 51 139 0.0 7.0 0.12 0.31 0.31 88 1009.7
20260505180729 51 140 0.9 8.7 0.12 0.31 0.31 87 1009.5
20260505180221 52 113 0.9 8.7 0.10 0.30 0.30 86 1009.5
20260505175214 53 40 0.9 2.6 0.06 0.25 0.25 86 1009.3
20260505174723 53 339 0.0 0.0 0.00 0.20 0.20 87 1009.4
20260505174221 53 161 0.0 0.0 0.00 0.20 0.20 86 1009.0
20260505173707 53 159 0.0 3.5 0.00 0.20 0.20 85 1009.0
20260505173223 53 162 0.0 3.5 0.00 0.20 0.20 85 1009.0
20260505172713 53 154 0.0 3.5 0.00 0.20 0.20 85 1009.0
20260505171711 53 138 0.0 2.6 0.00 0.20 0.20 85 1009.0
20260505170713 54 113 0.0 2.6 0.00 0.21 0.20 86 1008.9
20260505170207 54 139 0.0 2.6 0.00 0.21 0.20 86 1009.0
20260505165726 53 140 0.0 0.0 0.00 0.22 0.20 86 1009.0
20260505165212 53 186 0.0 0.0 0.00 0.22 0.20 86 1009.0
20260505164715 53 133 0.0 0.0 0.00 0.23 0.20 87 1009.0
20260505164207 53 123 0.0 5.2 0.00 0.23 0.20 87 1009.1
20260505163715 53 125 0.9 5.2 0.00 0.23 0.20 87 1009.2
20260505163215 53 143 0.9 5.2 0.00 0.23 0.20 87 1009.1
20260505162729 53 179 0.9 6.1 0.00 0.24 0.20 86 1009.1
20260505162227 54 132 2.6 6.1 0.00 0.24 0.20 86 1009.0
20260505161721 54 145 2.6 6.1 0.00 0.24 0.20 86 1009.0
20260505161224 54 125 1.7 5.2 0.00 0.24 0.20 87 1009.0
20260505160718 54 127 1.7 7.0 0.00 0.24 0.20 86 1009.1
20260505160228 53 109 2.6 7.0 0.00 0.24 0.20 86 1009.0
20260505152728 53 143 0.9 4.3 0.17 0.24 0.20 89 1009.0
20260505152220 53 179 0.9 4.3 0.17 0.24 0.20 88 1009.0
20260505151722 53 107 0.9 4.3 0.17 0.24 0.20 89 1009.0
20260505151209 53 167 0.9 3.5 0.17 0.24 0.20 88 1009.0
20260505150226 53 157 0.0 0.0 0.17 0.24 0.20 86 1009.1
20260505140243 60 281 3.5 8.7 0.00 0.07 0.02 66 1008.5
20260505130219 59 126 1.7 7.0 0.00 0.07 0.02 71 1008.7
20260505124720 58 111 0.0 0.0 0.00 0.07 0.02 73 1008.8
20260505124229 58 165 0.0 0.0 0.00 0.07 0.02 76 1008.7
20260505123720 58 215 0.0 0.0 0.00 0.07 0.02 77 1008.8
20260505123222 58 161 0.0 0.0 0.00 0.07 0.02 84 1008.8
20260505122719 57 171 0.0 0.0 0.00 0.07 0.02 83 1009.0
20260505122227 56 130 0.0 0.0 0.00 0.07 0.02 85 1009.0
20260505121722 55 167 0.0 0.0 0.01 0.07 0.02 85 1009.0
20260505121223 55 175 0.0 0.0 0.01 0.07 0.02 85 1009.1
20260505120719 55 179 0.0 0.0 0.01 0.07 0.02 85 1009.1
20260505120212 55 171 0.0 0.0 0.01 0.07 0.02 87 1009.1
20260505115721 55 172 0.0 0.0 0.01 0.07 0.02 87 1009.2
20260505114719 54 159 0.0 0.0 0.01 0.07 0.02 87 1009.3
20260505114207 54 171 0.0 0.0 0.01 0.07 0.02 87 1009.3
20260505113726 54 188 0.0 0.0 0.01 0.07 0.02 87 1009.4
20260505113231 54 169 0.0 0.0 0.01 0.07 0.02 87 1009.4
20260505112217 54 178 0.0 0.0 0.00 0.06 0.02 87 1009.4
20260505111721 54 161 0.0 0.0 0.00 0.06 0.02 87 1009.4
20260505111210 54 145 0.0 0.0 0.00 0.06 0.02 87 1009.5
20260505110217 54 154 0.0 0.0 0.00 0.06 0.02 86 1009.5
20260505101725 54 271 0.0 0.0 0.00 0.06 0.02 83 1009.4
20260505101210 54 271 0.0 0.0 0.00 0.06 0.02 84 1009.4
20260505100711 54 271 0.0 0.0 0.00 0.06 0.02 84 1009.4
20260505095218 53 170 0.0 0.0 0.00 0.06 0.02 85 1009.4
20260505094217 53 174 0.0 0.0 0.00 0.06 0.02 85 1009.4
20260505093722 53 177 0.0 0.0 0.00 0.06 0.02 85 1009.4
20260505093212 53 167 0.0 0.0 0.01 0.06 0.02 86 1009.4
20260505092719 53 323 0.0 0.0 0.01 0.06 0.02 86 1009.4
20260505092220 53 323 0.0 0.0 0.01 0.06 0.02 85 1009.4
20260505091716 53 324 0.0 0.0 0.01 0.06 0.02 85 1009.4
20260505090711 52 309 0.0 0.0 0.02 0.06 0.02 84 1009.7
20260505090220 52 296 0.0 0.0 0.02 0.06 0.02 85 1009.8
20260505084727 52 173 0.0 0.0 0.02 0.06 0.02 86 1010.0
20260505084224 52 173 0.0 0.0 0.02 0.06 0.02 85 1010.1
20260505083716 52 173 0.0 0.0 0.01 0.06 0.01 85 1010.1
20260505083223 52 173 0.0 0.0 0.01 0.06 0.01 85 1010.1
20260505082716 52 173 0.0 0.0 0.01 0.06 0.01 85 1010.1
20260505082219 53 173 0.0 0.0 0.01 0.06 0.01 84 1010.2
20260505081220 53 176 0.0 0.0 0.00 0.05 0.00 83 1010.2
20260505080717 53 157 0.0 0.0 0.00 0.05 0.00 84 1010.2
20260505080227 53 150 0.0 0.0 0.00 0.05 0.00 82 1010.2
20260505075718 53 169 0.0 0.0 0.00 0.05 0.00 83 1010.2
20260505075209 53 168 0.0 0.0 0.00 0.05 0.00 82 1010.2
20260505074713 53 168 0.0 0.0 0.00 0.05 0.00 81 1010.2
20260505074226 53 168 0.0 0.0 0.00 0.05 0.00 82 1010.2
20260505073720 53 168 0.0 0.0 0.00 0.05 0.00 82 1010.2
20260505073212 53 168 0.0 0.0 0.00 0.05 0.00 84 1010.2
20260505072722 53 168 0.0 0.0 0.00 0.05 0.00 84 1010.2
20260505072226 53 172 0.0 0.0 0.00 0.05 0.00 85 1010.3
20260505071725 53 169 0.0 0.0 0.00 0.05 0.00 84 1010.2
20260505071213 53 186 0.0 0.0 0.00 0.05 0.00 84 1010.2
20260505070714 53 179 0.0 0.0 0.00 0.05 0.00 84 1010.3
20260505070221 52 184 0.0 0.0 0.00 0.05 0.00 85 1010.3
20260505065726 52 184 0.0 0.0 0.00 0.05 0.00 86 1010.4
20260505065223 52 184 0.0 0.0 0.00 0.05 0.00 88 1010.4
20260505064716 51 148 0.0 0.0 0.00 0.05 0.00 86 1010.4
20260505064225 51 148 0.0 0.0 0.00 0.05 0.00 86 1010.5
20260505063721 51 148 0.0 0.0 0.00 0.05 0.00 86 1010.5
20260505063218 51 148 0.0 0.0 0.00 0.05 0.00 87 1010.5
20260505062721 51 148 0.0 0.0 0.00 0.05 0.00 87 1010.6
20260505062224 51 148 0.0 0.0 0.00 0.05 0.00 87 1010.6
20260505061719 51 148 0.0 0.0 0.00 0.05 0.00 87 1010.6
20260505060718 50 148 0.0 0.0 0.00 0.05 0.00 88 1010.6
20260505060220 50 148 0.0 0.0 0.00 0.05 0.00 88 1010.6
20260505055715 50 344 0.0 0.0 0.00 0.05 0.00 88 1010.5
20260505055216 49 319 0.0 0.0 0.00 0.05 0.00 88 1010.6
20260505054717 49 157 0.0 0.0 0.00 0.05 0.00 87 1010.6
20260505053714 49 157 0.0 0.0 0.00 0.05 0.00 87 1010.7
20260505053220 49 157 0.0 0.0 0.00 0.05 0.00 87 1010.7
20260505052718 49 157 0.0 0.0 0.00 0.05 0.00 88 1010.7
20260505051710 49 144 0.0 0.0 0.00 0.05 0.00 88 1010.7
20260505051214 49 76 0.0 0.0 0.00 0.05 0.00 88 1010.6
20260505050749 48 24 0.0 0.0 0.00 0.05 0.00 88 1010.6
20260505050219 48 24 0.0 0.0 0.00 0.05 0.00 88 1010.7
20260505041716 48 5 0.0 0.0 0.00 0.05 0.00 88 1010.7
20260505040224 48 355 0.0 0.0 0.00 0.05 0.00 89 1010.8
20260505035217 48 355 0.0 0.0 0.00 0.05 0.00 89 1010.8
20260505034715 48 355 0.0 0.0 0.00 0.05 0.00 89 1010.7
20260505034219 48 333 0.0 0.0 0.00 0.05 0.00 89 1010.7
20260505033732 48 329 0.0 0.0 0.00 0.05 0.00 90 1010.7
20260505033220 48 325 0.0 0.0 0.00 0.05 0.00 90 1010.7
20260505031732 47 159 0.0 0.0 0.00 0.05 0.00 90 1011.1
20260505031215 47 159 0.0 0.0 0.00 0.05 0.00 90 1011.1
20260505030715 47 159 0.0 0.0 0.00 0.05 0.00 90 1011.2
20260505030217 47 159 0.0 0.0 0.00 0.05 0.00 90 1011.2
20260505025209 47 159 0.0 0.0 0.00 0.05 0.00 90 1011.3
20260505024720 47 159 0.0 0.0 0.00 0.05 0.00 89 1011.2
20260505024225 47 159 0.0 0.0 0.00 0.05 0.00 89 1011.3
20260505023715 47 159 0.0 0.0 0.00 0.05 0.00 89 1011.3
20260505023231 47 159 0.0 0.0 0.00 0.05 0.00 89 1011.3
20260505022221 47 35 0.0 0.0 0.00 0.05 0.00 89 1011.2
20260505021723 47 35 0.0 0.0 0.00 0.05 0.00 89 1011.3
20260505021217 47 329 0.0 0.0 0.00 0.05 0.00 89 1011.4
20260505020727 47 180 0.0 0.0 0.00 0.05 0.00 89 1011.5
20260505020223 47 180 0.0 0.0 0.00 0.05 0.00 89 1011.5
20260505015721 48 180 0.0 0.0 0.00 0.05 0.00 89 1011.6
20260505015223 48 180 0.0 0.0 0.00 0.05 0.00 89 1011.6
20260505014730 48 180 0.0 0.0 0.00 0.05 0.00 89 1011.6
20260505014220 48 98 0.0 0.0 0.00 0.05 0.00 89 1011.6
20260505012712 47 318 0.0 0.0 0.00 0.05 0.00 90 1011.8
20260505012221 47 351 0.0 0.0 0.00 0.05 0.00 90 1011.9
20260505011714 47 351 0.0 0.0 0.00 0.05 0.00 90 1012.0
20260505011208 47 355 0.0 0.0 0.00 0.05 0.00 90 1012.0
20260505010732 47 5 0.0 0.0 0.00 0.05 0.00 89 1012.1
20260505010227 47 46 0.0 0.0 0.00 0.05 0.00 89 1012.1
20260505005728 47 46 0.0 0.0 0.00 0.05 0.00 89 1012.2
20260505005217 48 53 0.0 0.0 0.00 0.05 0.00 89 1012.2
20260505004231 48 63 0.0 0.0 0.00 0.05 0.00 88 1012.5
20260505003213 48 63 0.0 0.0 0.00 0.05 0.00 89 1012.6